Probability
0 0 0 0 0 0 0 0 0 0 0 0 0 0 0 0 0 0 0 0 0 0 0 0 0 0 0 0 0 0 0 0 0 3 3 6 6 3
0 0 0 0 0 0 0 0 0 0 0 0 0 0 0 0 0 0 0 0 0 0 0 0 0 0 0 0 0 0 0 0 0 3 3 3 3 0
0 0 0 0 0 0 0 0 0 0 0 0 0 0 0 0 0 0 0 0 0 0 0 0 0 0 0 0 0 0 0 0 0 0 3 0 0 0
0 0 0 0 0 0 0 0 0 0 0 0 0 0 0 0 0 0 0 0 0 0 0 0 0 0 0 0 0 0 0 0 0 0 0 0 0 0
0 0 0 0 0 0 0 0 0 0 0 0 0 0 0 0 0 0 0 0 0 0 0 0 0 0 0 0 0 0 0 0 0 0 0 0 0 0
0 0 0 0 0 0 0 0 0 0 0 0 0 0 0 0 0 0 0 0 0 0 0 0 0 0 0 0 0 0 0 0 0 0 0 0 0 0
0 0 0 0 0 0 0 0 0 0 0 0 0 0 0 0 0 0 0 0 0 0 0 0 0 0 0 0 0 0 0 0 0 0 0 0 0 0
0 0 0 0 0 0 0 0 0 0 0 0 0 0 0 0 0 0 0 0 0 0 0 0 0 0 0 0 0 0 0 0 0 0 0 0 0 0
3 0 0 0 0 0 0 0 0 0 0 0 0 0 0 0 0 0 0 0 0 0 0 0 0 0 0 0 0 0 0 0 0 0 0 0 0 0
0 0 0 0 0 0 0 0 0 0 0 0 0 0 0 0 0 0 0 0 0 0 0 0 0 0 0 0 0 0 0 0 0 0 0 0 0 0
0 0 0 0 0 0 0 0 0 0 0 0 0 0 0 0 0 0 0 0 0 0 0 0 0 0 0 0 0 0 0 0 0 0 0 0 0 0
0 0 0 0 0 0 0 0 0 0 0 0 0 0 0 0 0 0 0 0 0 0 0 0 0 0 0 0 0 0 0 0 0 0 0 0 0 0
0 0 0 0 0 0 0 0 0 0 0 0 0 0 0 0 0 0 0 0 0 0 0 0 0 0 0 0 0 0 0 0 0 0 0 0 0 0
0 0 0 0 0 0 0 0 0 0 0 0 0 0 0 0 0 0 0 0 0 0 0 0 0 0 0 0 0 0 0 0 0 0 0 0 0 0
0 0 0 0 0 0 0 0 0 0 0 0 0 0 0 0 0 0 0 0 0 0 0 0 0 0 0 0 0 0 0 0 0 0 0 0 0 0
0 0 0 0 0 0 0 0 0 0 0 0 0 0 0 0 0 0 0 0 0 0 0 0 0 0 0 0 0 0 0 0 0 0 0 0 0 0
0 0 0 0 0 0 0 0 0 0 0 0 0 0 0 0 0 0 0 0 0 0 0 0 0 0 0 0 0 0 0 0 0 0 0 0 0 0
0 0 0 0 0 0 0 0 0 0 0 0 0 0 0 0 0 0 0 0 0 0 0 0 0 0 0 0 0 0 0 0 0 0 0 0 0 0
0 0 0 0 0 0 0 0 0 0 0 0 0 0 0 0 0 0 0 0 0 0 0 0 0 0 0 0 0 0 0 0 0 0 0 0 0 0
0 0 0 0 0 0 0 0 0 0 0 0 0 0 0 0 0 0 0 0 0 0 0 0 0 0 0 0 0 0 0 0 0 0 0 0 0 0
0 0 0 0 0 0 0 0 0 0 0 0 0 0 0 0 0 0 0 0 0 0 0 0 0 0 0 0 0 0 0 0 0 0 0 0 0 0
0 0 0 0 0 0 0 0 0 0 0 0 0 0 0 0 0 0 0 0 0 0 0 0 0 0 0 0 0 0 0 0 0 0 0 0 0 0
0 0 0 0 0 0 0 0 0 0 0 0 0 0 0 0 0 0 0 0 0 0 0 0 0 0 0 0 0 0 0 0 0 0 0 0 0 0
Height
5784 5783 5783 5782 5781 5781 5780 5780 5781 5781 5781 5781 5781 5782 5782 5783 5783 5784 5785 5785 5785 5785 5786 5786 5787 5788 5789 5789 5790 5791 5792 5793 5794 5795 5796 5797 5797 5798
5778 5777 5776 5775 5774 5774 5773 5773 5773 5774 5774 5774 5775 5775 5776 5776 5777 5778 5778 5779 5779 5780 5780 5781 5782 5782 5783 5784 5785 5786 5787 5788 5789 5789 5790 5791 5792 5793
5770 5769 5769 5768 5767 5767 5766 5766 5766 5766 5767 5767 5767 5768 5769 5769 5770 5771 5772 5773 5773 5774 5774 5775 5776 5777 5777 5778 5779 5780 5781 5782 5783 5784 5785 5785 5786 5787
5762 5761 5761 5760 5760 5759 5758 5758 5758 5758 5758 5759 5760 5761 5761 5762 5763 5764 5765 5766 5766 5767 5768 5768 5769 5770 5771 5772 5773 5774 5775 5776 5777 5778 5779 5780 5780 5781
5754 5753 5752 5752 5751 5751 5750 5750 5750 5750 5750 5751 5752 5753 5754 5754 5755 5756 5757 5758 5759 5760 5761 5762 5762 5763 5764 5765 5766 5767 5768 5770 5770 5771 5772 5773 5774 5775
5745 5744 5743 5743 5742 5742 5741 5741 5741 5741 5741 5742 5743 5744 5745 5746 5747 5749 5749 5750 5752 5753 5754 5755 5755 5756 5757 5758 5759 5760 5761 5762 5763 5764 5765 5766 5767 5768
5735 5734 5733 5733 5733 5732 5732 5731 5731 5731 5732 5733 5734 5735 5736 5737 5739 5740 5741 5742 5743 5745 5746 5747 5748 5748 5749 5750 5752 5753 5754 5755 5756 5757 5758 5759 5760 5761
5725 5724 5723 5722 5722 5722 5721 5721 5721 5721 5722 5723 5724 5726 5727 5728 5729 5731 5732 5734 5735 5737 5737 5739 5739 5741 5742 5743 5744 5745 5746 5747 5748 5749 5750 5752 5752 5753
5715 5714 5713 5712 5711 5710 5710 5710 5711 5711 5712 5713 5714 5715 5717 5719 5720 5722 5723 5725 5726 5728 5729 5730 5731 5732 5733 5734 5735 5737 5738 5739 5740 5741 5742 5744 5745 5746
5706 5705 5704 5703 5701 5700 5700 5700 5701 5701 5702 5703 5704 5705 5707 5708 5710 5712 5713 5715 5717 5718 5719 5721 5722 5724 5725 5726 5727 5728 5730 5731 5732 5733 5735 5736 5737 5738
5697 5696 5695 5693 5692 5691 5691 5691 5692 5692 5692 5693 5694 5695 5696 5698 5700 5702 5704 5706 5708 5709 5710 5712 5713 5714 5715 5716 5718 5719 5721 5722 5723 5725 5726 5727 5728 5729
5689 5688 5686 5685 5684 5683 5682 5682 5682 5683 5683 5684 5685 5685 5687 5689 5690 5692 5694 5696 5698 5699 5701 5702 5703 5704 5706 5707 5708 5710 5711 5713 5714 5715 5717 5718 5719 5720
5681 5679 5678 5677 5675 5674 5674 5673 5673 5674 5674 5675 5676 5677 5678 5679 5681 5682 5684 5686 5688 5689 5691 5692 5693 5694 5696 5698 5699 5700 5702 5703 5704 5706 5707 5709 5710 5711
5672 5671 5670 5669 5668 5667 5666 5665 5665 5665 5666 5666 5667 5668 5669 5670 5672 5673 5674 5675 5677 5679 5680 5681 5683 5684 5686 5687 5689 5691 5692 5693 5695 5696 5698 5699 5700 5702
5664 5663 5662 5661 5660 5659 5658 5658 5657 5657 5657 5658 5659 5660 5661 5662 5663 5664 5664 5665 5667 5668 5670 5671 5673 5674 5675 5677 5678 5680 5682 5683 5684 5686 5687 5689 5690 5692
5657 5656 5655 5654 5653 5652 5651 5650 5649 5649 5649 5649 5650 5651 5652 5652 5653 5654 5655 5656 5657 5658 5660 5661 5662 5664 5665 5666 5668 5669 5671 5673 5674 5676 5677 5679 5680 5682
5650 5649 5648 5647 5646 5644 5643 5642 5641 5641 5641 5641 5642 5643 5643 5644 5644 5645 5646 5647 5648 5649 5650 5651 5652 5653 5655 5656 5658 5659 5661 5662 5664 5665 5667 5668 5670 5671
5644 5643 5641 5640 5639 5637 5636 5635 5634 5633 5633 5633 5634 5634 5635 5635 5636 5636 5637 5638 5639 5639 5640 5641 5642 5643 5644 5646 5647 5649 5650 5651 5653 5654 5656 5657 5659 5660
5638 5636 5635 5633 5632 5630 5629 5628 5627 5626 5625 5626 5626 5626 5627 5627 5627 5628 5628 5629 5629 5630 5630 5631 5632 5633 5634 5636 5637 5638 5639 5640 5642 5643 5645 5647 5648 5649
5631 5630 5628 5627 5625 5623 5622 5621 5620 5619 5618 5618 5618 5618 5619 5619 5619 5619 5619 5620 5620 5620 5621 5621 5622 5622 5623 5625 5626 5628 5628 5629 5631 5633 5634 5636 5637 5638
5625 5623 5621 5620 5618 5616 5615 5614 5613 5612 5612 5611 5611 5610 5610 5610 5610 5611 5611 5611 5611 5611 5611 5612 5612 5612 5613 5614 5616 5617 5618 5618 5620 5621 5623 5624 5625 5627
5618 5616 5614 5612 5611 5609 5608 5607 5605 5605 5604 5604 5603 5603 5602 5602 5602 5602 5602 5602 5602 5602 5602 5602 5602 5602 5603 5604 5605 5606 5607 5608 5609 5610 5611 5613 5614 5615
5610 5609 5607 5605 5603 5602 5601 5599 5598 5597 5596 5596 5595 5595 5594 5594 5593 5593 5593 5592 5592 5592 5592 5592 5592 5592 5592 5593 5594 5595 5596 5597 5598 5599 5601 5601 5603 5604
Wind_Speed
23 24 24 24 24 24 24 24 23 23 23 23 23 24 24 23 23 22 21 21 21 21 21 21 20 20 20 20 20 20 20 20 20 20 20 20 20 20
24 25 25 25 25 25 25 25 24 24 23 23 23 23 24 24 24 23 22 22 21 21 21 21 21 21 21 21 21 21 21 21 21 21 21 21 20 20
26 26 25 26 26 26 26 26 26 25 25 24 24 24 25 25 24 24 24 23 23 22 22 22 22 22 22 22 22 22 22 23 22 22 22 21 21 21
27 27 27 27 27 27 27 27 27 27 26 26 25 25 26 26 26 25 25 25 25 24 23 23 23 23 23 23 23 23 23 23 23 23 23 22 22 22
28 28 28 28 27 27 27 27 27 27 27 27 26 26 26 27 27 26 27 26 26 26 25 25 25 25 25 24 24 24 24 23 23 23 24 24 23 23
30 30 29 28 28 28 29 28 28 28 28 28 27 27 27 27 27 27 27 27 27 27 27 27 26 26 27 26 24 24 24 25 25 25 24 24 24 23
31 30 30 30 30 30 30 30 30 30 29 29 29 29 28 28 28 28 28 28 27 27 27 27 28 27 27 27 26 25 25 26 25 24 24 24 24 24
30 30 30 31 30 31 31 30 30 30 30 30 30 30 29 29 29 29 29 28 28 28 27 27 27 27 27 27 26 26 26 26 26 25 24 25 25 24
29 29 29 29 30 31 31 31 30 30 30 30 30 30 30 30 30 30 30 29 29 29 28 28 27 27 27 27 27 27 27 26 26 25 25 25 25 25
28 28 28 28 28 29 29 30 30 29 29 30 31 30 30 30 31 30 30 29 29 30 30 29 28 28 28 28 28 28 28 27 27 27 26 26 26 26
28 28 27 28 28 28 28 28 28 28 28 28 29 29 29 29 30 31 31 30 29 29 29 29 29 29 29 29 29 29 28 28 28 28 28 28 27 27
27 27 27 27 27 27 26 26 26 27 27 27 29 29 29 29 30 31 31 31 30 30 30 30 29 30 30 30 30 30 30 29 29 29 29 28 28 28
27 27 26 26 26 25 25 25 26 26 27 27 28 29 29 29 29 30 31 31 31 30 30 31 31 30 30 30 31 30 30 30 30 30 30 30 29 29
26 26 26 25 25 25 24 25 25 26 26 27 27 28 28 28 28 29 30 30 30 30 30 31 31 31 31 30 31 31 31 31 31 31 31 31 30 30
25 25 24 24 24 25 25 25 25 26 26 26 27 27 28 28 28 28 29 30 30 31 31 31 30 30 31 30 31 31 31 31 30 31 31 32 31 31
24 23 23 23 24 25 25 25 25 25 25 25 26 27 27 28 28 27 28 28 29 29 30 30 30 30 30 30 30 30 31 31 31 31 31 32 33 32
22 22 22 23 24 24 24 24 25 24 24 24 25 25 26 27 27 27 27 27 27 28 28 29 29 30 30 31 31 31 31 32 32 32 31 32 33 33
22 22 23 23 24 23 23 24 24 24 24 24 24 24 24 26 26 27 26 26 27 27 28 29 29 30 30 31 32 32 32 32 32 32 32 32 32 33
22 23 23 23 23 23 23 23 24 24 24 24 24 24 24 25 26 26 27 26 26 27 28 29 29 30 30 31 31 33 33 33 33 32 32 33 33 33
23 23 23 24 24 23 23 23 23 23 23 24 24 24 23 24 24 25 26 27 27 27 28 29 29 30 30 30 31 32 32 32 33 34 33 33 33 34
23 23 23 23 24 23 23 24 24 24 23 24 24 24 24 24 25 25 26 27 27 27 27 27 28 30 30 31 31 31 33 33 32 33 33 33 33 33
24 24 24 24 24 23 23 24 24 24 24 24 25 25 25 25 25 26 27 27 27 27 27 27 27 28 30 31 32 32 32 33 33 32 33 34 33 33
24 24 24 24 23 23 23 24 24 24 25 25 25 25 25 26 26 27 27 27 27 26 27 27 28 28 29 30 31 31 32 33 33 33 33 34 34 34
Wind_Direction
285 284 283 282 281 281 281 280 278 275 272 272 270 268 268 268 268 267 268 269 270 269 267 265 263 262 263 264 263 263 261 259 260 260 262 263 262 262
285 284 283 281 280 280 279 279 278 276 273 271 270 267 266 267 266 265 265 266 267 267 265 261 261 261 263 262 262 261 260 260 260 261 261 260 261 261
285 283 281 280 280 280 278 277 277 275 273 272 270 267 266 266 266 265 265 263 264 266 266 260 259 259 260 260 258 258 259 260 262 260 259 260 261 262
282 282 281 280 280 279 277 276 275 274 273 272 270 268 266 265 265 265 265 264 263 264 266 262 259 258 259 261 258 257 258 259 260 261 262 262 264 264
282 281 280 279 279 278 277 276 274 273 272 271 269 270 268 266 265 264 264 264 263 263 264 264 260 258 258 261 261 260 259 260 261 263 263 262 263 264
281 281 280 277 277 277 277 276 274 272 270 269 268 268 269 267 265 265 264 264 263 262 262 262 262 261 260 262 261 260 262 263 263 264 264 263 263 264
281 282 281 278 276 276 275 274 273 271 269 267 266 267 268 267 266 265 263 264 263 261 261 262 263 263 261 261 261 260 261 262 262 262 262 260 261 263
282 282 282 279 276 275 273 272 272 272 270 267 267 268 266 266 266 265 263 262 262 261 261 261 262 262 261 261 260 259 259 259 258 260 260 260 260 260
284 283 283 281 279 277 274 272 271 271 270 268 267 267 266 265 265 265 263 261 262 262 262 261 261 262 261 260 259 259 257 257 256 257 257 258 258 259
284 285 285 282 282 281 277 274 272 271 271 269 268 267 265 264 264 264 263 263 263 263 262 262 261 261 262 260 259 259 259 257 255 256 257 257 258 259
285 286 286 285 283 281 278 275 273 271 271 270 269 266 265 264 264 264 263 262 263 263 263 262 261 260 261 261 259 258 259 258 258 257 258 259 258 259
287 287 285 285 284 282 279 277 275 272 271 271 270 267 265 263 263 263 262 262 262 262 262 262 262 260 259 259 258 258 259 259 259 258 258 258 259 260
287 287 287 285 284 283 280 278 276 273 271 271 270 268 266 265 263 263 263 262 262 261 261 261 262 262 260 258 257 257 258 259 259 259 258 257 258 260
288 287 287 285 284 284 282 281 279 276 272 271 270 269 267 266 265 266 266 265 263 261 261 261 261 261 261 259 257 256 257 258 258 258 258 259 259 260
288 289 288 286 286 285 284 282 281 278 275 272 271 269 268 267 267 267 266 266 264 262 262 263 262 260 260 260 258 257 255 256 258 259 258 258 259 260
291 291 291 290 287 286 285 283 282 279 276 272 271 270 270 270 269 268 267 267 267 265 264 264 263 261 260 260 259 257 256 256 258 259 259 258 259 260
290 290 290 291 289 287 286 284 282 280 277 275 273 272 271 271 270 269 268 267 267 266 265 264 265 263 262 260 259 258 257 258 258 258 258 259 260 261
291 291 291 292 291 289 287 286 284 281 278 276 274 273 273 272 271 271 270 268 268 268 265 265 266 264 264 263 260 259 258 259 258 257 257 259 261 261
293 292 292 292 291 288 287 286 283 281 278 276 275 276 275 273 272 272 271 271 272 271 269 267 265 264 263 264 263 260 259 259 258 258 259 261 262 263
292 293 293 292 290 288 287 286 284 283 281 280 280 279 276 274 273 274 274 274 274 273 271 269 266 265 264 264 263 263 262 260 259 259 259 260 261 263
292 291 292 293 291 289 288 288 287 284 282 281 280 279 277 276 276 276 277 278 275 274 272 270 269 266 265 265 264 264 263 263 262 262 261 260 261 262
293 292 291 293 293 291 291 290 288 285 283 282 281 279 279 277 276 277 278 278 277 276 273 272 271 269 268 268 266 265 263 263 263 263 263 263 263 263
295 295 294 293 292 292 292 290 288 285 284 284 282 280 279 279 278 278 277 277 277 276 274 273 272 272 271 270 268 266 264 263 263 263 264 264 264 264